Вернуться в каталог

STARLINK-30077

АктивенСвязьVLEO
NORAD 57460·PAYLOAD·🇺🇸 United States

Запущен Jul 28, 2023 с Cape Canaveral Space Force Station

Loading…

Ближайшие Пролёты (ближайшие 24 часа)

TLE

СвежийSource: CelesTrak SupGP

Эпоха: Sep 15, 2026, 02:44 UTC

1 57460C 23107D   26258.11437500  .00039988  00000+0  14482-2 0  2584
2 57460  43.0011 345.9786 0001393 260.9842  16.8131 15.27561600    16

Отслеживайте STARLINK-30077 в реальном времени с AllMySat

Download on the App Store